UmKA 1 (RS40S)
1 57172U 23091G   26139.86401106  .00003899  00000-0  18157-3 0  9998
2 57172  97.5063 198.6751 0012061 211.7355 148.3154 15.20455239159709
CubeBel-2 (EU11S)
1 57175U 23091K   26139.84240306  .00008969  00000-0  32649-3 0  9997
2 57175  97.5061 202.8199 0009541 206.0487 154.0274 15.28415036159971
RS-38S
1 57189U 23091Z   26139.86546924  .00012974  00000-0  38355-3 0  9990
2 57189  97.5098 208.8028 0008325 162.4868 197.6664 15.35030961160347
SONATE-2
1 59112U 24043Q   26139.87120132  .00029178  00000-0  41181-3 0  9991
2 59112  97.5515 288.5843 0005783 301.6628  58.4062 15.56528561123486
GRBBeta
1 60237U 24128C   26139.81216549  .00002903  00000-0  20657-3 0  9999
2 60237  61.9903 315.8018 0044531 128.7809 231.7275 15.06380239101990
Curium One
1 60242U 24128H   26139.87047891  .00006735  00000-0  39392-3 0  9996
2 60242  61.9791 306.0320 0044010 125.3655 235.1565 15.12011067102171
ROBUSTA-3A
1 60243U 24128J   26139.75350939  .00005631  00000-0  33886-3 0  9990
2 60243  61.9869 308.7612 0045340 122.6336 237.9147 15.11180770102122
CatSat
1 60246U 24125J   26139.86049263  .00042678  00000-0  62157-3 0  9992
2 60246  97.2108 352.0615 0021111 286.1117  73.7813 15.55349226102982
HYPERVIEW-1G (RS66S)
1 61772U 24199AP  26139.86668884  .00088797  00000-0  76626-3 0  9992
2 61772  97.2922  18.3027 0006197  43.6812 316.4939 15.68948165130220
AO-123
1 61781U 24199AY  26139.88135181  .00006025  00000-0  17792-3 0  9996
2 61781  97.3030   8.8112 0015469  55.4181 304.8519 15.35219431129585
JINJUSat 1B
1 63210U 25052A   26139.49097904  .00010528  00000-0  33759-3 0  9995
2 63210  97.4035  36.2246 0003772 151.9605 208.1840 15.32520901 65700
NUSHSAT 1
1 63211U 25052B   26139.44812619  .00012208  00000-0  36464-3 0  9992
2 63211  97.4012  36.6537 0003478 150.8481 209.2957 15.34743863 65736
TEVEL2-4
1 63213U 25052D   26139.22054830  .00010800  00000-0  33580-3 0  9995
2 63213  97.3933  35.5841 0002432 158.4179 201.7167 15.33501761 65673
TEVEL2-5
1 63214U 25052E   26139.69475722  .00012442  00000-0  38818-3 0  9997
2 63214  97.3932  36.0141 0002448 156.4351 203.7004 15.33357540 65743
TEVEL2-6
1 63215U 25052F   26139.51061639  .00012484  00000-0  38998-3 0  9992
2 63215  97.3934  35.8146 0002523 158.6934 201.4413 15.33314552 65715
TEVEL2-1
1 63217U 25052H   26139.46478593  .00012131  00000-0  38501-3 0  9998
2 63217  97.3909  35.4261 0001975 171.4829 188.6447 15.32818755 65692
TEVEL2-3
1 63218U 25052J   26139.46040100  .00012064  00000-0  38231-3 0  9993
2 63218  97.3910  35.4402 0001994 170.9915 189.1364 15.32866874 65692
TEVEL2-2
1 63219U 25052K   26139.66108219  .00012548  00000-0  39799-3 0  9999
2 63219  97.3908  35.6241 0001954 171.9496 188.1777 15.32830154 65727
TEVEL2-9
1 63237U 25052AD  26139.21029041  .00009279  00000-0  31294-3 0  9994
2 63237  97.3969  34.6097 0004317 232.0379 128.0472 15.30928980 65590
TEVEL2-7
1 63238U 25052AE  26139.24587484  .00009233  00000-0  31399-3 0  9994
2 63238  97.3973  34.5729 0004474 232.2001 127.8836 15.30658823 65592
TEVEL2-8
1 63239U 25052AF  26139.64605443  .00011099  00000-0  37693-3 0  9991
2 63239  97.3974  34.9496 0004421 231.4319 128.6526 15.30651255 65658
HYDRA-W
1 63490U 25052BL  26113.93882235  .05662091  24406-5  29537-2 0  9997
2 63490  97.3690  18.2798 0008685 203.5899 156.4993 16.20186780 62336
HADES-ICM (SO-125)
1 63492U 25052BN  26139.22363440  .02073343  39485-2  23686-2 0  9993
2 63492  97.3705  43.9782 0011715 191.1728 168.9297 16.09971905 66230
SPIRONE
1 66657U 25274H   26139.24432735  .00001028  00000-0  10311-3 0  9991
2 66657  97.7480  68.9529 0013675 107.9914 252.2798 14.93412540 25903
K-HERO
1 66660U 25274L   26139.25706814  .00000830  00000-0  83382-4 0  9997
2 66660  97.7487  69.1052 0015471 112.3250 247.9612 14.93836283 25918
SNUGLITE-III DURI
1 66661U 25274M   26139.24574595  .00000757  00000-0  76389-4 0  9993
2 66661  97.7485  69.1135 0016081 113.3215 246.9699 14.93890377 25917
SilverSat
1 66909U 98067XV  26113.44966717  .07226154  12288-4  11979-2 0  9998
2 66909  51.6027 190.0749 0007952 333.4666  26.5949 16.32457272 22308
SAKHACUBE-CHOLBON
1 67290U 25313AU  26139.15041435  .00006914  00000-0  28533-3 0  9996
2 67290  97.3939 214.5598 0010996  99.6187 260.6294 15.24300860 21556
RS95S (QMR-KWT-2)
1 67291U 25313AV  26139.42535272  .00008800  00000-0  35012-3 0  9990
2 67291  97.3939 214.9521 0010620  98.4660 261.7783 15.25453733 21604
Ten-Koh2
1 68261U 25241B   26139.28858563  .00004304  00000-0  19171-3 0  9996
2 68261  51.6579  97.1277 0006481  54.7380 305.4203 15.23488212 10506
JACK-002
1 68417U 26067B   26139.64136696  .00004484  00000-0  21753-3 0  9990
2 68417  97.4558  98.5973 0003351  54.7223 305.4325 15.18997175  7611
DISCO 2
1 68431U 26067R   26139.32625841  .00003202  00000-0  15810-3 0  9990
2 68431  97.4594  98.2775 0004463  93.4378 266.7367 15.18596802  7561
HADES-SA (SpinnyONE)
1 68446U 26067AG  26139.62330198  .00012238  00000-0  60421-3 0  9994
2 68446  97.4403  98.3744 0007845 155.1617 204.9996 15.18001128  7599
PARUS-6U1
1 68456U 26067AS  26139.10605109  .00003842  00000-0  19671-3 0  9997
2 68456  97.4543  97.9283 0006521 148.0851 212.0779 15.17180443  7528
SAL-E
1 68458U 26067AU  26139.83036652  .00005308  00000-0  26949-3 0  9995
2 68458  97.4469  98.5971 0006571 153.6750 206.4819 15.17308769  7630
FSI-SAT 2
1 68792U 26088A   26139.66220314  .00002218  00000-0  15368-3 0  9990
2 68792  97.5040 289.6496 0014108 198.8192 161.2516 15.06570564  3997
OrigamiSat 2
1 68795U 26088D   26139.37101579  .00002577  00000-0  17104-3 0  9990
2 68795  97.5042 289.4269 0016016 174.4067 185.7344 15.08019253  3950
ARICA 2
1 68796U 26088E   26139.83345708  .00003548  00000-0  23302-3 0  9992
2 68796  97.5029 289.8764 0016106 171.2596 188.8916 15.08159156  4027
WASEDA-SAT-ZERO-II
1 68797U 26088F   26139.69953369  .00004806  00000-0  31327-3 0  9999
2 68797  97.5030 289.7480 0016048 171.6301 188.5198 15.08265003  4003
MANGARO-II-Piscus
1 68798U 26088G   26139.69389389  .00003118  00000-0  20289-3 0  9995
2 68798  97.5039 289.7591 0019434 174.9363 185.2066 15.08541529  4000
IO-86
1 40931U          25360.30710720  .00000000  00000-0  12800-3 0    00
2 40931   6.0006 332.5373 0012733 338.8432   8.1437 14.79075515    01
LILIUM-4                
1 71922C 26067AC  26089.50133053 -.00014632  00000+0 -74472-3 0    04
2 71922  97.4497  49.1617 0004341   5.9603 355.7042 15.16896692    16
